Theta_e
317 317 316 315 314 314 315 315 316 317 318 319 320 321 321 321 322 321 321 321 321 321 321 322 323 323 323 324 324 324 325 326 327 328 329 330 330 331 332 333 333 333
318 317 316 315 313 314 314 315 316 318 319 320 320 321 321 321 321 321 321 320 320 320 320 320 321 322 323 323 324 324 325 325 326 327 328 329 330 331 331 332 332 332
318 317 316 315 314 313 314 315 317 318 319 320 320 320 321 321 321 320 320 319 319 319 319 319 319 320 321 323 323 323 324 324 325 326 327 328 329 331 331 332 332 332
318 317 316 315 314 313 314 316 317 318 319 320 320 320 320 320 320 319 319 318 318 318 318 318 318 319 320 322 322 323 323 324 325 326 327 327 328 329 330 331 332 332
318 317 316 315 314 313 314 315 316 318 319 319 319 320 320 319 318 318 318 317 317 317 317 317 317 318 319 321 322 322 323 323 324 325 326 327 327 328 329 330 330 331
318 317 316 315 314 313 314 315 315 317 319 319 319 319 319 318 317 317 317 317 317 317 317 317 317 317 318 320 321 322 322 323 323 324 325 326 327 327 328 329 330 331
318 317 316 316 314 313 313 314 315 317 318 319 319 319 318 317 317 316 317 317 317 317 317 317 317 317 317 319 320 321 322 322 323 323 324 325 326 327 327 327 329 330
318 317 316 316 315 313 313 314 315 317 318 318 318 318 317 316 316 316 316 317 316 316 317 316 316 316 317 318 319 320 320 321 322 322 323 324 325 326 327 327 327 327
317 316 316 316 314 313 314 314 314 316 318 318 318 317 316 316 315 315 316 316 316 315 316 315 315 315 316 316 318 319 319 319 320 321 322 323 324 326 327 327 327 327
317 316 316 316 314 313 313 314 314 316 317 317 317 317 316 316 315 315 315 315 315 315 315 315 314 314 315 316 316 317 317 317 318 320 321 323 324 325 325 326 327 328
317 316 316 315 314 313 313 314 314 316 317 317 317 317 316 315 315 315 315 314 314 314 314 314 314 313 314 315 315 314 314 315 316 318 320 322 323 324 325 325 326 327
316 315 315 314 313 313 313 314 315 316 317 317 317 316 316 315 315 315 315 314 314 314 314 314 313 313 313 314 313 311 310 311 313 315 318 320 322 323 324 325 325 326
316 315 314 313 313 313 313 314 315 317 317 317 317 316 315 315 315 315 315 314 314 314 314 314 314 313 313 314 312 309 308 309 310 312 315 317 320 322 323 324 325 325
315 315 314 312 312 313 313 314 316 317 317 317 316 316 315 315 315 315 315 315 314 314 314 314 314 314 314 313 312 310 309 308 309 310 312 315 318 321 322 324 324 324
315 314 313 312 312 312 313 314 316 317 317 316 316 316 315 315 315 315 315 315 315 314 314 314 314 314 314 313 310 309 310 310 309 310 311 313 316 320 322 323 324 324
314 313 312 311 312 312 313 314 315 316 316 316 316 316 315 314 314 315 315 315 315 315 314 314 315 314 314 312 310 310 311 312 312 311 311 312 314 318 321 322 323 324
313 313 312 312 312 312 312 313 313 314 315 315 315 315 315 314 313 314 314 315 315 315 315 315 315 315 314 312 309 309 311 313 313 313 312 312 314 317 320 322 322 323
314 313 312 311 311 312 312 312 312 313 314 314 314 314 314 313 313 313 313 314 315 316 315 315 315 315 314 312 309 309 310 313 314 314 313 312 314 317 320 321 322 323
314 313 312 311 311 311 312 312 312 313 313 313 313 313 313 313 312 312 312 313 314 315 315 315 315 315 314 311 309 309 311 314 314 314 313 313 315 318 320 321 322 322
313 313 312 311 311 311 311 312 312 312 313 313 312 312 312 312 312 312 312 313 314 315 314 314 315 314 313 311 309 309 312 314 315 315 316 315 317 319 320 321 322 322
313 313 312 311 311 311 311 311 312 312 312 312 312 312 311 311 311 312 312 313 314 314 314 314 314 313 312 311 310 309 312 315 315 317 318 318 319 319 320 320 321 320
313 312 312 311 311 311 311 311 311 311 311 311 311 311 311 311 311 312 312 313 314 314 314 314 313 313 312 311 310 309 312 315 316 316 318 319 319 319 319 320 319 317
313 312 311 311 310 310 310 310 311 311 310 310 311 311 311 311 311 311 312 313 313 314 314 314 313 312 312 311 309 309 312 315 315 316 317 318 318 318 319 319 317 316
312 312 311 311 310 310 310 310 310 310 310 310 311 311 311 311 311 311 311 312 313 314 314 313 313 312 312 310 309 310 312 314 315 316 317 318 318 318 318 318 317 315
312 312 311 311 310 310 310 310 310 310 309 309 310 310 310 310 311 311 311 312 313 313 313 313 313 312 311 310 309 310 312 314 314 315 317 317 317 317 317 317 316 315
312 312 311 310 310 310 309 309 309 309 309 309 309 310 310 310 310 311 311 312 313 313 313 313 312 311 310 309 308 310 312 313 314 315 316 316 316 316 316 316 315 314
Wind_Speed
5 8 11 12 9 7 9 10 12 13 13 14 14 15 14 13 13 13 13 14 13 13 13 12 12 14 14 14 15 16 17 18 17 17 17 17 16 15 14 14 14 14
4 7 11 12 8 8 10 10 10 12 13 14 14 14 14 13 12 12 13 13 13 13 14 13 13 13 13 13 14 15 16 17 18 17 17 17 17 16 15 14 13 13
3 6 11 13 11 10 11 10 10 11 12 14 14 14 12 11 12 12 13 13 13 14 15 15 15 14 13 13 14 15 15 16 17 17 18 18 17 17 16 14 13 13
3 6 10 13 13 12 10 10 11 12 12 13 13 12 10 10 11 13 13 13 14 14 15 16 16 16 14 12 13 15 16 16 16 16 18 19 18 17 16 13 12 11
3 6 9 11 12 10 10 11 12 12 12 13 13 11 10 10 11 13 14 14 15 15 16 16 16 17 15 12 12 14 15 16 16 16 17 18 19 17 15 13 12 11
4 6 9 10 10 10 10 12 12 11 11 11 12 11 11 12 12 13 14 15 16 16 16 17 17 17 16 13 13 14 15 15 16 16 16 17 19 17 15 14 12 11
4 6 8 9 10 11 11 13 13 11 10 10 11 11 11 12 13 14 14 15 16 15 15 16 16 16 16 14 14 15 16 16 16 16 16 17 18 17 15 13 12 12
5 7 8 8 11 11 10 13 13 10 9 10 11 11 11 12 13 14 14 14 14 14 14 15 15 16 16 15 15 16 16 17 17 16 17 17 18 18 14 12 12 12
6 8 8 7 10 11 9 11 13 10 8 9 11 11 11 12 12 13 13 13 13 13 14 15 16 17 16 15 15 15 16 17 18 17 18 18 17 17 15 13 13 10
7 7 6 6 8 10 9 11 13 10 7 9 10 10 11 11 11 11 12 12 12 12 13 14 15 16 16 16 15 16 17 19 19 19 19 19 18 18 16 13 13 11
7 5 5 7 7 8 9 12 13 9 7 8 9 10 10 9 9 10 11 11 11 11 12 12 13 14 15 14 14 16 17 18 20 20 20 19 18 18 16 13 12 11
5 5 6 6 6 7 9 11 11 9 7 8 9 9 10 9 9 9 9 10 10 11 11 11 11 12 13 13 15 18 19 18 18 18 19 19 18 18 16 13 12 12
4 6 7 5 4 6 8 9 8 8 8 8 9 9 9 9 9 8 9 10 10 10 11 11 11 11 11 12 16 20 22 20 18 17 17 18 18 18 16 13 12 12
5 10 9 3 2 5 8 7 6 7 8 9 9 9 9 9 9 9 10 10 10 10 10 10 11 11 11 12 15 20 24 24 21 18 17 18 18 18 16 13 12 11
8 10 6 0 2 6 7 6 6 6 7 9 10 9 9 10 9 9 9 10 11 11 10 10 10 10 11 12 15 20 22 22 21 19 18 18 18 18 16 13 12 9
8 7 4 4 5 7 7 6 6 6 6 8 9 10 10 10 10 9 9 10 11 11 11 11 9 9 11 12 16 18 18 18 19 18 18 18 18 18 16 13 12 9
8 5 5 6 6 6 6 6 5 5 5 7 9 10 10 10 10 10 10 11 11 11 12 12 10 10 11 13 16 17 17 18 19 17 17 16 17 18 16 13 12 9
7 5 6 7 6 6 6 6 5 5 6 8 9 10 11 10 11 11 11 12 11 11 12 12 11 10 11 14 17 18 19 19 17 16 15 14 15 17 14 12 11 10
6 6 7 7 6 6 6 6 5 5 6 8 10 11 11 12 12 12 13 13 11 10 12 12 11 10 11 15 18 19 19 17 14 14 13 11 14 16 13 10 11 10
7 6 7 6 6 6 6 5 6 6 6 8 9 11 12 13 13 13 13 12 11 11 12 12 10 10 11 14 18 20 18 15 14 14 12 11 14 14 11 9 9 8
8 7 6 6 6 6 5 5 6 7 7 8 9 10 11 12 12 12 12 13 12 12 12 11 9 10 11 13 17 19 17 14 14 14 13 12 14 12 8 6 7 6
8 7 5 5 6 6 5 5 6 7 7 8 9 9 11 11 11 12 12 12 12 11 11 10 9 9 10 13 16 17 15 13 13 14 13 11 10 8 5 4 7 7
8 6 5 6 6 6 7 6 5 6 8 9 10 10 9 10 10 11 13 12 11 10 10 9 8 7 8 13 16 15 14 13 12 13 13 10 7 5 3 4 7 9
7 6 6 6 6 7 7 6 6 7 9 10 10 9 8 8 9 11 13 12 10 9 9 9 8 7 8 13 16 14 12 12 11 12 11 8 6 5 3 4 7 10
6 6 5 5 6 7 7 7 7 8 9 10 10 9 9 9 9 11 12 10 8 8 9 8 8 7 8 14 17 15 12 11 10 11 11 8 6 4 3 4 6 9
6 6 6 7 8 8 7 7 7 9 11 10 8 8 10 11 10 10 10 9 9 9 9 8 7 6 9 14 14 12 12 10 8 9 10 9 7 4 3 5 5 8
Wind_Direction
341 343 350 345 345 344 332 327 318 313 316 319 321 322 323 325 327 329 333 335 337 333 328 326 324 325 325 326 330 330 331 332 331 329 324 320 314 299 284 276 267 255
319 337 343 339 346 351 336 324 315 312 316 319 321 322 322 322 323 327 329 329 331 332 331 329 326 326 326 327 328 327 329 331 330 329 326 322 319 310 296 283 273 261
296 322 336 342 354 355 336 324 315 312 316 321 323 324 322 320 322 324 323 325 329 331 332 329 325 323 322 323 325 324 326 327 326 327 327 326 322 313 301 288 277 265
277 310 335 346 351 346 332 322 315 312 319 324 324 326 325 318 320 323 322 325 329 330 330 328 324 320 317 320 323 322 322 323 325 326 326 328 326 317 305 293 283 271
264 310 335 342 340 334 326 320 314 312 321 327 324 325 325 319 321 323 325 328 330 330 328 326 326 323 320 323 324 322 322 322 325 326 324 326 326 320 309 297 288 279
259 305 329 335 338 337 325 317 313 308 316 325 322 320 321 322 325 325 327 331 331 330 328 326 327 324 323 328 328 323 322 321 323 326 325 325 326 323 312 299 287 282
263 298 320 333 338 338 325 316 311 304 309 318 314 313 318 322 326 329 332 334 332 331 331 330 328 324 325 330 328 324 322 321 321 323 325 325 325 326 322 310 296 288
267 297 322 336 333 331 322 313 311 306 308 312 307 309 317 322 326 332 336 337 335 334 334 333 331 329 329 331 328 325 323 321 321 323 324 322 322 325 327 323 309 292
263 297 320 329 326 327 324 314 311 309 309 307 306 312 319 323 328 333 339 341 336 335 337 335 334 332 329 330 330 330 327 325 324 324 324 320 320 323 324 322 319 310
261 290 310 316 323 328 328 319 310 305 304 302 303 312 317 324 331 334 340 342 337 337 338 334 334 332 328 329 334 335 333 330 328 323 319 317 317 319 322 323 320 318
264 292 312 316 327 334 332 323 310 302 303 301 301 307 313 322 332 332 336 338 334 330 327 327 331 330 330 335 340 339 333 327 325 321 316 315 316 318 321 324 319 311
281 314 320 319 330 337 329 318 308 305 304 298 299 306 312 322 328 327 329 331 328 323 318 321 326 326 330 333 334 337 333 322 316 317 317 314 315 317 318 321 320 312
287 295 292 305 331 328 313 303 305 310 304 296 299 303 310 321 325 322 320 321 323 321 317 318 319 321 322 317 322 334 336 326 316 315 317 315 314 317 316 319 321 311
274 270 261 255 323 313 301 294 301 306 300 294 297 300 307 316 318 317 316 314 317 318 316 316 316 317 312 306 318 332 333 326 317 314 317 317 315 315 313 317 322 314
258 263 263 314 337 302 291 284 284 290 293 294 294 297 307 311 312 313 312 311 313 314 315 314 314 313 305 305 322 332 330 323 315 310 312 313 313 311 310 316 321 314
265 274 300 315 295 278 272 272 274 278 286 292 294 300 305 308 314 314 309 309 309 311 315 314 309 309 306 314 330 333 328 323 318 312 305 304 307 308 309 316 319 312
290 302 296 280 271 271 275 282 287 292 297 294 295 299 300 305 313 312 308 309 308 308 312 311 308 310 312 322 335 337 330 325 322 317 306 298 301 306 309 318 322 321
290 297 286 278 279 285 291 298 300 301 306 305 304 306 305 305 306 304 305 306 304 305 310 310 311 314 316 326 338 340 332 325 320 317 310 298 298 304 309 321 328 330
282 274 271 276 284 291 301 312 312 303 301 306 310 309 308 306 301 300 301 301 300 305 309 311 311 311 317 328 339 341 334 326 321 319 311 295 295 302 310 329 339 340
283 270 271 282 295 301 310 321 321 318 310 305 303 301 302 303 300 300 299 298 300 304 305 305 306 309 319 330 337 338 333 325 325 327 318 297 292 300 315 339 350 354
275 266 269 283 289 297 315 319 309 306 301 297 297 296 298 299 298 299 297 295 299 300 299 305 309 310 321 331 334 333 328 323 329 333 325 307 298 301 319 343 342 346
265 257 254 273 285 289 289 279 276 283 287 288 289 289 291 292 293 294 291 291 295 295 297 308 310 305 319 332 332 329 324 324 332 335 329 319 310 309 318 338 338 338
262 260 254 263 270 272 273 267 260 267 274 272 268 268 275 285 292 291 289 287 288 292 301 309 305 299 319 333 332 327 323 324 332 338 335 329 328 329 321 331 349 355
254 256 251 253 260 269 277 282 277 277 280 277 273 269 270 275 281 285 285 285 286 294 301 300 297 299 319 330 330 326 322 321 330 341 341 338 344 356 354 339 353 3
256 255 250 257 270 273 274 276 280 285 287 283 285 290 288 281 278 279 284 288 293 299 296 288 288 299 316 324 324 320 315 317 332 343 342 341 348 360 12 10 4 4
251 252 249 252 261 270 277 280 279 278 276 272 275 285 285 281 274 270 277 286 290 295 295 284 278 293 315 322 319 307 303 315 343 350 340 341 347 349 40 54 20 352